Погода в Девичьем

Россия / Брянская область     52°46′33″N   34°40′47″E
темп.,
°C
ветер,
м/с
пор.,
м/с
влажн.,
%
обл.,
%
осадки,
мм/ч
давл.,
гПа
погр.,
м
24 января, пн
пн2400:00−15св3610098 0.0 103381
03:00−15ссв37100100 0.0 103491
06:00−11ссв41095100 0.0 1034195
09:00−12св4119784 0.1 1034214
12:00−10ссв499585 0.0 1034244
15:00−7ссв499571 0.0 1033342
18:00−11ссв499657 0.0 1033152
21:00−13св399638 0.0 1033137
25 января, вт
вт2500:00−15ссв249858 0.0 103159
03:00−18св2210077 0.0 103120
06:00−20св2210098 0.0 102910
09:00−21св11100100 0.0 102810
12:00−12в119578 0.0 102675
15:00−9ююз229465 0.1 1023154
18:00−14ююз22100100 0.0 102215
21:00−14ююз35100100 0.1 102066
26 января, ср
ср2600:00−12ююз3796100 0.0 1019149
03:00−10ююз3796100 1.2 1017214
06:00−9юз2596100 0.9 1017208
09:00−10зюз239779 1.2 101763
12:00−7с249491 0.1 1018220
15:00−5ссз259296 0.2 1018428
18:00−6ссз2596100 0.1 1019214
21:00−8ссз239798 0.2 102087
27 января, чт
чт2700:00−16ссз2210097 0.0 102115
03:00−18зюз22100100 0.1 102112
06:00−17юз22100100 0.0 102028
09:00−14ююз3599100 0.1 101888
12:00−10ю4794100 0.0 1017234
15:00−8ю599389 0.0 1015334
18:00−10ю5119388 0.0 1014274
21:00−9ю5129474 0.1 1013298
28 января, пт
пт2800:00−9ю6129591 0.1 1011295
03:00−8ю61394100 0.3 1009324
06:00−6ю71595100 0.4 1006398
09:00−4ю71596100 1.4 1004501
12:00−2ююз61297100 1.2 1002516
15:000юз51098100 1.9 1001722
18:000юз51096100 0.8 1001559
21:00−1юз51196100 1.3 1001555